Current weather by "City, St" or "zip code"  
 

Current Conditions: Francis E Warren Air Force Base Heliport, WY

A Few Clouds


21.0 F

Last Updated on Jan 31 2023, 6:55 pm MST
Humidity: 49%
Wind Speed: S 5.8 mph
Barometer 30.02 in
Dewpoint: 4.5 F
Visibility: 10.00 mi
Precip: --
Heat Index: NA
Wind Chill: 13 F
Current conditions at:

Francis E Warren Air Force Base Heliport, WY (KFEW)

Lat: 41.13332 Lon: 104.86719

Local Radar Image active severe weather and emergency alerts image image weather storm and storm spotter reports image weather observation monitoring service image
Local
Radar
Active
Alerts
Storm Reports Obs
Monitoring

Sign-up For Email & Text Message Weather Alert Notification Services



Advertise Here

Observation History for Francis E Warren Air Force Base Heliport, WY


Time Wind
(mph)
Vis
(mi)
Weather Precip (in) Temperature (F) Relative
Humidity
Wind
Chill
(F)
Heat
Index
(F)
Pressure
Air Dwpt altimeter
(in)
sea level
(mb)
Rmks
6:55 pm MST S 5.8 10.00 A Few Clouds -- 21.0 4.5 49% 13 NA 30.02 1024.9
5:55 pm MST 10.00 A Few Clouds -- 21.0 2.1 44% NA NA 30.02 1025.8
4:55 pm MST W 12.7 10.00 A Few Clouds -- 23.0 % 11 NA 29.99 1024.8
3:55 pm MST W 9.2 10.00 A Few Clouds -- 25.0 1.4 36% 16 NA 29.97 M
1:55 pm MST W 9.2 10.00 NULL -- 21.0 1.4 42% 11 NA 29.96 M
1:55 pm MST W 9.2 10.00 NULL -- 21.0 1.4 42% 11 NA 29.96 M
12:55 pm MST SW 9.2 10.00 A Few Clouds -- 22.0 0.1 38% 12 NA 29.97 1027.6
9:55 am MST SW 13.8 10.00 A Few Clouds -- 14.0 -6.3 39% -1 NA 30.03 1028.8
8:55 am MST S 16.1 G 19.6 10.00 NULL -- 11.0 -6.2 46% -6 NA 30.00 1028.6
7:55 am MST W 11.5 10.00 Fair -- 7.0 -7.6 51% -8 NA 30.00 1029.5
2:55 am MST W 6.9 10.00 A Few Clouds -- -9.0 -18.8 63% -24 NA 30.04 1035.2
1:55 am MST N 0.0 10.00 Partly Cloudy -- -15.0 -24.2 62% NA NA 30.05 1036.2
12:55 am MST SW 6.9 10.00 Partly Cloudy -- -10.0 -21.8 56% -25 NA 30.05 1035.5
11:55 pm MST W 11.5 10.00 Partly Cloudy -- -6.0 -14.8 64% -25 NA 30.06 1035.9
10:55 pm MST 10.00 Mostly Cloudy -- -8.0 -18.4 60% NA NA 30.07 1036.2
9:55 pm MST W 11.5 10.00 Mostly Cloudy -- -1.0 -14.8 51% -18 NA 30.07 1035.6
8:55 pm MST W 10.4 10.00 Overcast -- -1.0 -12.6 56% -18 NA 30.06 1035.2

Regional Weather Observation


Cheyenne, Cheyenne Airport, WY (KCYS)

Fair
21.0 F

Laramie Regional Airport, WY (KLAR)

Fair and Breezy
12.0 F

Pine Bluffs Municipal Airport, WY (K82V)

Fair
50.0 F

Bravo (Pine Bluffs), NE (K1BW)

Blowing Snow and Windy
-23.0 F

Fort Collins/Loveland - Northern Colorado Regional Airport, CO (KFNL)

Fair
22.0 F

Oscar, CO (K1OW)

Overcast and Windy
32.0 F

Advertise Here


Advertise Here